This is the latest recevied weather packets stored in our database for station/object KI4MRC. If no packets are shown the sender has not sent any weather packets the latest 10 day(s).
| Time | Temp. | Humidity | Pressure | Rain* | Wind** | Luminosity | Snow |
|---|---|---|---|---|---|---|---|
| 1777901989 | 23.89° C | 91% | 1015.3 hPa | 0 mm | - | 81 W/m² | - |
| 1777901687 | 23.89° C | 91% | 1015.4 hPa | 0 mm | - | 109 W/m² | - |
| 1777901384 | 23.89° C | 91% | 1015.3 hPa | 0 mm | - | 164 W/m² | - |
| 1777901082 | 23.89° C | 91% | 1015.4 hPa | 0 mm | - | 132 W/m² | - |
| 1777900779 | 23.89° C | 90% | 1015.1 hPa | 0 mm | - | 93 W/m² | - |
| 1777900476 | 23.89° C | 89% | 1015 hPa | 0 mm | - | 78 W/m² | - |
| 1777900173 | 23.89° C | 90% | 1015 hPa | 0 mm | - | 203 W/m² | - |
| 1777899869 | 23.33° C | 92% | 1014.8 hPa | 0 mm | - | 200 W/m² | - |
| 1777899566 | 23.89° C | 93% | 1014.7 hPa | 0 mm | - | 127 W/m² | - |
| 1777899264 | 23.89° C | 92% | 1014.7 hPa | 0 mm | - | 123 W/m² | - |
| 1777898961 | 23.89° C | 93% | 1014.8 hPa | 0 mm | - | 152 W/m² | - |
| 1777898658 | 23.89° C | 95% | 1014.7 hPa | 0 mm | - | 163 W/m² | - |
| 1777898355 | 23.33° C | 96% | 1014.7 hPa | 0 mm | - | 108 W/m² | - |
| 1777898053 | 23.33° C | 96% | 1014.3 hPa | 0 mm | - | 104 W/m² | - |
| 1777897749 | 23.33° C | 97% | 1014.5 hPa | 0 mm | - | 81 W/m² | - |
| 1777897445 | 22.78° C | 97% | 1014.3 hPa | 0 mm | - | 97 W/m² | - |
| 1777897141 | 22.78° C | 98% | 1014.3 hPa | 0 mm | - | 88 W/m² | - |
| 1777896837 | 22.78° C | 98% | 1014.2 hPa | 0 mm | - | 78 W/m² | - |
| 1777896535 | 22.78° C | 99% | 1014.2 hPa | 0 mm | - | 76 W/m² | - |
| 1777896232 | 22.22° C | 99% | 1014.1 hPa | 0 mm | - | 75 W/m² | - |
| 1777895930 | 22.22° C | 99% | 1014.2 hPa | 0 mm | - | 86 W/m² | - |
| 1777895627 | 22.22° C | 99% | 1014.1 hPa | 0 mm | - | 75 W/m² | - |
| 1777895325 | 22.22° C | 99% | 1014 hPa | 0 mm | - | 51 W/m² | - |
| 1777895023 | 21.67° C | 99% | 1014.1 hPa | 0 mm | - | 57 W/m² | - |
| 1777894719 | 21.67° C | 99% | 1014.2 hPa | 0 mm | - | 42 W/m² | - |
* Rain latest hour (hover to see other rain measurements)
** Current wind speed in m/s (hover to see current wind gust speed)